This is the latest recevied weather packets stored in our database for station/object DL8GAK-13. If no packets are shown the sender has not sent any weather packets the latest 10 day(s).
| Time | Temp. | Humidity | Pressure | Rain* | Wind** | Luminosity | Snow |
|---|---|---|---|---|---|---|---|
| 1777835634 | 19.44° C | 51% | 1021.1 hPa | - | - | - | - |
| 1777835033 | 19.44° C | 50% | 1020.9 hPa | - | - | - | - |
| 1777833832 | 20° C | 48% | 1020.8 hPa | - | - | - | - |
| 1777833231 | 20.56° C | 47% | 1020.6 hPa | - | - | - | - |
| 1777832630 | 20.56° C | 47% | 1020.3 hPa | - | - | - | - |
| 1777832030 | 20.56° C | 46% | 1020.2 hPa | - | - | - | - |
| 1777831429 | 21.11° C | 46% | 1020.1 hPa | - | - | - | - |
| 1777830829 | 21.11° C | 46% | 1019.9 hPa | - | - | - | - |
| 1777830228 | 21.11° C | 46% | 1019.8 hPa | - | - | - | - |
| 1777829627 | 21.11° C | 45% | 1020 hPa | - | - | - | - |
| 1777829027 | 21.67° C | 43% | 1020.2 hPa | - | - | - | - |
| 1777827826 | 22.22° C | 42% | 1020.3 hPa | - | - | - | - |
| 1777827226 | 22.22° C | 42% | 1020.2 hPa | - | - | - | - |
| 1777826625 | 22.22° C | 42% | 1020.1 hPa | - | - | - | - |
| 1777825425 | 22.78° C | 40% | 1020 hPa | - | - | - | - |
| 1777822422 | 23.89° C | 39% | 1019.9 hPa | - | - | - | - |
| 1777821822 | 23.89° C | 39% | 1020 hPa | - | - | - | - |
| 1777821221 | 24.44° C | 39% | 1020.1 hPa | - | - | - | - |
| 1777820621 | 24.44° C | 39% | 1020.1 hPa | - | - | - | - |
| 1777820021 | 25.56° C | 39% | 1020.2 hPa | - | - | - | - |
| 1777819420 | 26.11° C | 38% | 1020.3 hPa | - | - | - | - |
| 1777818820 | 26.67° C | 39% | 1020.4 hPa | - | - | - | - |
| 1777818220 | 25.56° C | 40% | 1020.4 hPa | - | - | - | - |
| 1777817619 | 25° C | 41% | 1020.4 hPa | - | - | - | - |
| 1777817019 | 24.44° C | 43% | 1020.5 hPa | - | - | - | - |
* Rain since midnight (hover to see other rain measurements)
** Current wind speed in m/s (hover to see current wind gust speed)